Hourly Weather Roundup
Issued by NWS Central Illinois

Home | Current Version | Previous Version | Text Only | Print | Product List | Glossary On
Versions: 1 2 3 4 5 6 7 8 9 10 11 12 13 14 15 16 17 18 19 20 21 22 23 24 25 26 27 28 29 30 31 32 33 34 35 36 37 38 39 40 41 42 43 44 45 46 47 48 49 50
000
NZUS43 KILX 241310
HWRILX

AREA WEATHER ROUNDUP
NATIONAL WEATHER SERVICE, LINCOLN IL
700 AM CST FRI FEB 24 2017


CITY           SKY/WX    TMP DP  RH WIND       PRES   REMARKS
BLOOMINGTON    CLOUDY    58  55  90 S22       29.43F
CHAMPAIGN      CLEAR     59  55  87 S23G31    29.47F
DECATUR        CLEAR     59  54  83 S16       29.46S
EFFINGHAM      CLEAR     60  57  91 SE7       29.53S
FLORA          CLEAR     62  57  84 S13       29.54S
GALESBURG      CLOUDY    42  42 100 NE8       29.41S FOG
JACKSONVILLE   CLEAR     57  53  85 S13G20    29.40F
LACON          MOCLDY    44  44 100 N6        29.41S FOG
LAWRENCEVILLE  CLEAR     60  56  86 S17       29.57F
LITCHFIELD     CLOUDY    58  55  91 S17       29.47R
$$


CITY           SKY/WX    TMP DP  RH WIND       PRES   REMARKS
LINCOLN        PTCLDY    59  57  93 S16G23    29.43R
MACOMB         CLOUDY    46  46  98 N3        29.42S FOG
MATTOON        CLEAR     59  56  89 S14G22    29.49F
MT CARMEL AP   CLEAR     61  55  81 S16       29.56F
OLNEY-NOBLE AP CLEAR     61  61 100 S14       29.55S
PARIS          PTCLDY    59  56  89 S20       29.52F
PEORIA         PTCLDY    57  54  89 SW8       29.41R
PONTIAC        PTCLDY    59  58  95 S21G26    29.42S
RANTOUL        CLEAR     61  57  88 S21G28    29.47R
SPRINGFIELD    CLEAR     61  55  81 S18G29    29.43S
TAYLORVILLE    CLEAR     59  55  88 S15       29.46S
$$

...REGIONAL REPORTS...


CITY           SKY/WX    TMP DP  RH WIND       PRES   REMARKS
CHICAGO O`HARE CLOUDY    40  38  93 N12       29.47F WCI  33
KANKAKEE       MOCLDY    58  55  92 S18G24    29.45R
MOLINE         CLOUDY    42  38  85 E12       29.43F FOG
MOUNT STERLING MOCLDY    56  53  88 SW3       29.39S
MOUNT VERNON   PTCLDY    62  56  80 S21       29.54R
PITTSFIELD     CLEAR     60  55  82 S9        29.41S
QUINCY         FOG       47  47 100 NW12      29.41R VSB 1/4
ROCKFORD       DRIZZLE   38  35  89 NE14G22   29.50F WCI  30
$$


CITY           SKY/WX    TMP DP  RH WIND       PRES   REMARKS
BURLINGTON     CLOUDY    42  42 100 N6        29.39F FOG
CEDAR RAPIDS   CLOUDY    33  33 100 NE18      29.47R FOG     WCI  22
DES MOINES     LGT RAIN  35  33  92 N9        29.59R FOG     WCI  28
KIRKSVILLE     FOG       40  39  97 NW10      29.49R VSB 3/4 WCI  33
OTTUMWA        CLOUDY    36  36 100 N10       29.48R FOG     WCI  28
ST LOUIS       MOCLDY    63  53  70 SE9       29.46R
$$


CITY           SKY/WX    TMP DP  RH WIND       PRES   REMARKS
TERRE HAUTE    CLEAR     62  54  74 S14       29.56F
EVANSVILLE     CLEAR     63  55  75 S12G21    29.62S
INDIANAPOLIS   PTCLDY    60  54  80 S14       29.60R
LAFAYETTE      CLOUDY    62  56  80 SW10      29.53S
MADISON        CLOUDY    32  30  92 NE17G23   29.57S WCI  21
MILWAUKEE      CLOUDY    36  33  89 N17G26    29.55F WCI  26
$$





USA.gov is the U.S. government's official web portal to all federal, state and local government web resources and services.